Language: 


Des rapports , des résumés tant et plus, au choix de chacun....


Données Historiques de Météogheer
Journalier Rapport pour Septembre 25, 2017 Unitée:  Métrique    Impériale   Les deux
Suivant Jour »
Journalier Hebdomadaire Mensuel Annuel Sur mesure
  Max: Min: Moyenne:
Température: 22.6 °C 0.0 °C 15.6 °C
Point de rosée: 16.0 °C 10.0 °C 12.6 °C
Humidité: 98% 0% 81%
Vent: 9.3km/h 0.0km/h 2.3km/h
Rafales: 9.3km/h - -
Vent- - ESE
Pression: 1020.9 hPa 0.0 hPa -
Pluie: 0.0 mm    
Historical Graphs
 
 
Données tabulaires pour Septembre 25, 2017
Heure Température Point de rosée Pression Vent Vent Rafales Humidité Pluie Taux (Horaire) Conditions
00:01 12.8 °C 10.0 °C 1020.9 hPa Calm     83% 0.0 mm
00:06 12.8 °C 10.0 °C 1020.9 hPa Calm     83% 0.0 mm
00:11 12.6 °C 11.0 °C 1020.9 hPa Calm     85% 0.0 mm
00:16 12.6 °C 11.0 °C 1019.9 hPa Calm     86% 0.0 mm
00:24 12.6 °C 11.0 °C 1019.9 hPa Calm     86% 0.0 mm
00:29 12.5 °C 11.0 °C 1019.9 hPa Calm     87% 0.0 mm
00:34 12.5 °C 11.0 °C 1019.9 hPa Calm     87% 0.0 mm
00:39 12.5 °C 11.0 °C 1019.9 hPa Calm     88% 0.0 mm
00:45 12.4 °C 11.0 °C 1019.9 hPa NNE 3.2 km/h 3.2 km/h 88% 0.0 mm
00:50 12.3 °C 11.0 °C 1019.9 hPa Calm   3.2 km/h 88% 0.0 mm
00:55 12.2 °C 11.0 °C 1019.9 hPa Calm   3.2 km/h 89% 0.0 mm
01:00 12.1 °C 11.0 °C 1019.9 hPa Calm     89% 0.0 mm
01:05 12.1 °C 11.0 °C 1019.9 hPa Calm     89% 0.0 mm
01:10 12.0 °C 11.0 °C 1019.9 hPa Calm   2.6 km/h 91% 0.0 mm
01:15 11.9 °C 11.0 °C 1019.9 hPa Calm   2.6 km/h 91% 0.0 mm
01:20 11.8 °C 10.0 °C 1019.9 hPa Calm     92% 0.0 mm
01:25 11.7 °C 10.0 °C 1019.9 hPa Calm     91% 0.0 mm
01:30 11.6 °C 10.0 °C 1019.9 hPa Calm     91% 0.0 mm
01:35 11.6 °C 10.0 °C 1019.9 hPa Calm     92% 0.0 mm
01:40 11.5 °C 10.0 °C 1019.9 hPa Calm     92% 0.0 mm
01:45 11.5 °C 10.0 °C 1018.8 hPa NNE 1.4 km/h 4.3 km/h 92% 0.0 mm
01:50 11.5 °C 10.0 °C 1018.8 hPa Calm   4.3 km/h 92% 0.0 mm
01:55 11.5 °C 10.0 °C 1018.8 hPa Calm   4.7 km/h 92% 0.0 mm
02:00 11.5 °C 10.0 °C 1018.8 hPa NNE 5.0 km/h 5.0 km/h 92% 0.0 mm
02:05 11.3 °C 10.0 °C 1018.8 hPa Calm   5.0 km/h 93% 0.0 mm
02:10 11.3 °C 10.0 °C 1018.8 hPa Calm   5.0 km/h 93% 0.0 mm
02:15 11.3 °C 10.0 °C 1018.8 hPa NNE 6.1 km/h 6.1 km/h 93% 0.0 mm
02:21 11.3 °C 10.0 °C 1018.8 hPa Calm   6.1 km/h 94% 0.0 mm
02:26 11.2 °C 10.0 °C 1018.8 hPa NNE 5.5 km/h 6.1 km/h 94% 0.0 mm
02:31 11.1 °C 10.0 °C 1018.8 hPa NE 4.0 km/h 5.5 km/h 95% 0.0 mm
02:36 11.1 °C 10.0 °C 1018.8 hPa NE 5.5 km/h 6.4 km/h 95% 0.0 mm
02:40 10.9 °C 10.0 °C 1018.8 hPa North 1.8 km/h 6.4 km/h 95% 0.0 mm
02:46 10.8 °C 10.0 °C 1018.2 hPa Calm   6.4 km/h 95% 0.0 mm
02:51 10.7 °C 10.0 °C 1018.2 hPa Calm   4.0 km/h 95% 0.0 mm
02:56 10.7 °C 10.0 °C 1018.2 hPa Calm   4.7 km/h 95% 0.0 mm
03:01 0.0 °C 10.0 °C 0.0 hPa Calm     0% 0.0 mm
03:06 0.0 °C 10.0 °C 1018.2 hPa Calm   4.7 km/h 0% 0.0 mm
03:11 0.0 °C 10.0 °C 1018.2 hPa NNE 5.5 km/h 5.5 km/h 0% 0.0 mm
03:17 10.5 °C 10.0 °C 1018.8 hPa Calm   5.5 km/h 95% 0.0 mm
03:22 10.5 °C 10.0 °C 1018.8 hPa Calm     95% 0.0 mm
03:27 10.5 °C 10.0 °C 1018.8 hPa Calm     96% 0.0 mm
03:32 10.5 °C 10.0 °C 1018.8 hPa Calm     96% 0.0 mm
03:37 10.4 °C 10.0 °C 1018.8 hPa NE 4.7 km/h 4.7 km/h 96% 0.0 mm
03:42 10.4 °C 10.0 °C 1018.8 hPa Calm   4.7 km/h 96% 0.0 mm
03:47 10.2 °C 10.0 °C 1018.8 hPa Calm   2.6 km/h 96% 0.0 mm
03:52 10.2 °C 10.0 °C 1018.8 hPa Calm   2.6 km/h 96% 0.0 mm
03:57 10.1 °C 10.0 °C 1018.8 hPa Calm     96% 0.0 mm
04:02 10.1 °C 10.0 °C 1018.8 hPa Calm     96% 0.0 mm
04:07 10.0 °C 10.0 °C 1018.8 hPa Calm     96% 0.0 mm
04:12 10.0 °C 10.0 °C 1018.8 hPa Calm     96% 0.0 mm
04:17 10.0 °C 10.0 °C 1019.9 hPa Calm     96% 0.0 mm
04:22 10.0 °C 10.0 °C 1019.9 hPa Calm     96% 0.0 mm
04:27 10.1 °C 10.0 °C 1019.9 hPa Calm     97% 0.0 mm
04:33 10.2 °C 10.0 °C 1018.8 hPa Calm   3.2 km/h 97% 0.0 mm
04:38 10.3 °C 10.0 °C 1018.8 hPa NE 4.0 km/h 4.3 km/h 98% 0.0 mm
04:43 10.3 °C 10.0 °C 1018.8 hPa Calm   4.3 km/h 98% 0.0 mm
04:48 10.2 °C 10.0 °C 1018.8 hPa Calm   4.0 km/h 98% 0.0 mm
04:53 10.2 °C 10.0 °C 1018.8 hPa Calm     98% 0.0 mm
04:58 10.2 °C 10.0 °C 1018.8 hPa Calm   5.5 km/h 98% 0.0 mm
05:03 10.2 °C 10.0 °C 1018.8 hPa Calm   5.5 km/h 98% 0.0 mm
05:08 10.3 °C 10.0 °C 1018.8 hPa Calm   2.6 km/h 98% 0.0 mm
05:14 10.4 °C 10.0 °C 1018.8 hPa North 4.0 km/h 5.8 km/h 98% 0.0 mm
05:20 10.5 °C 11.0 °C 1018.8 hPa NNE 3.2 km/h 4.0 km/h 98% 0.0 mm
05:22 10.5 °C 11.0 °C 1018.8 hPa Calm   5.0 km/h 98% 0.0 mm
05:23 10.5 °C 11.0 °C 1018.8 hPa Calm   5.0 km/h 98% 0.0 mm
05:24 10.5 °C 11.0 °C 1018.8 hPa Calm   5.0 km/h 98% 0.0 mm
05:26 10.5 °C 11.0 °C 1018.8 hPa Calm   5.0 km/h 98% 0.0 mm
05:32 10.5 °C 11.0 °C 1018.8 hPa Calm     98% 0.0 mm
05:37 10.5 °C 11.0 °C 1018.8 hPa NNE 3.5 km/h 3.5 km/h 98% 0.0 mm
05:42 10.5 °C 11.0 °C 1018.8 hPa Calm   3.5 km/h 98% 0.0 mm
05:47 10.5 °C 11.0 °C 1018.8 hPa Calm   3.5 km/h 98% 0.0 mm
05:52 10.5 °C 11.0 °C 1018.8 hPa Calm     98% 0.0 mm
05:57 10.4 °C 10.0 °C 1018.8 hPa Calm     98% 0.0 mm
06:02 10.5 °C 11.0 °C 1018.2 hPa NNE 2.1 km/h 2.1 km/h 98% 0.0 mm
06:07 10.5 °C 11.0 °C 1018.2 hPa Calm   2.6 km/h 98% 0.0 mm
06:12 10.5 °C 11.0 °C 1018.2 hPa Calm   2.6 km/h 98% 0.0 mm
06:17 10.6 °C 11.0 °C 1018.8 hPa Calm   4.0 km/h 98% 0.0 mm
06:23 10.6 °C 11.0 °C 1018.8 hPa NNW 1.4 km/h 4.0 km/h 98% 0.0 mm
06:28 10.6 °C 11.0 °C 1018.8 hPa Calm   4.3 km/h 98% 0.0 mm
06:33 10.5 °C 11.0 °C 1018.8 hPa Calm   4.3 km/h 98% 0.0 mm
06:36 10.5 °C 11.0 °C 1018.8 hPa North 2.6 km/h 2.6 km/h 98% 0.0 mm
06:41 10.6 °C 11.0 °C 1018.8 hPa Calm   2.6 km/h 98% 0.0 mm
06:46 10.6 °C 11.0 °C 1018.8 hPa Calm   4.7 km/h 98% 0.0 mm
06:51 10.6 °C 11.0 °C 1018.8 hPa NE 4.7 km/h 5.0 km/h 98% 0.0 mm
06:56 10.5 °C 11.0 °C 1018.8 hPa NE 5.5 km/h 5.5 km/h 98% 0.0 mm
07:01 10.5 °C 11.0 °C 1018.8 hPa Calm   5.5 km/h 98% 0.0 mm
07:06 10.4 °C 10.0 °C 1018.8 hPa NE 2.6 km/h 4.3 km/h 98% 0.0 mm
07:11 10.4 °C 10.0 °C 1018.8 hPa NE 5.0 km/h 5.0 km/h 98% 0.0 mm
07:16 10.4 °C 10.0 °C 1018.8 hPa North 5.8 km/h 6.1 km/h 98% 0.0 mm
07:21 10.4 °C 10.0 °C 1018.8 hPa Calm   6.1 km/h 98% 0.0 mm
07:26 10.4 °C 10.0 °C 1018.8 hPa NNE 1.8 km/h 6.1 km/h 98% 0.0 mm
07:31 10.4 °C 10.0 °C 1018.8 hPa Calm   4.3 km/h 98% 0.0 mm
07:36 10.4 °C 10.0 °C 1018.8 hPa Calm   4.3 km/h 98% 0.0 mm
07:41 10.4 °C 10.0 °C 1018.8 hPa Calm   4.3 km/h 98% 0.0 mm
07:46 10.4 °C 10.0 °C 1018.8 hPa Calm   4.3 km/h 98% 0.0 mm
07:51 10.5 °C 11.0 °C 1018.8 hPa NNE 2.1 km/h 6.1 km/h 98% 0.0 mm
07:56 10.6 °C 11.0 °C 1018.8 hPa North 5.0 km/h 6.1 km/h 98% 0.0 mm
08:01 10.7 °C 11.0 °C 1018.8 hPa NNE 3.2 km/h 5.0 km/h 98% 0.0 mm
08:06 10.8 °C 11.0 °C 1018.8 hPa Calm   4.3 km/h 98% 0.0 mm
08:11 10.9 °C 11.0 °C 1018.8 hPa Calm   6.1 km/h 98% 0.0 mm
08:16 10.9 °C 11.0 °C 1018.8 hPa Calm   6.1 km/h 98% 0.0 mm
08:21 11.3 °C 11.0 °C 1018.8 hPa Calm   5.8 km/h 98% 0.0 mm
08:26 11.5 °C 12.0 °C 1018.8 hPa Calm   5.8 km/h 98% 0.0 mm
08:32 11.6 °C 12.0 °C 1018.8 hPa Calm   5.5 km/h 98% 0.0 mm
08:37 12.0 °C 12.0 °C 1018.8 hPa NNE 5.5 km/h 6.9 km/h 98% 0.0 mm
08:42 12.0 °C 12.0 °C 1018.8 hPa NE 6.9 km/h 7.9 km/h 98% 0.0 mm
08:47 12.0 °C 12.0 °C 1018.8 hPa NE 4.0 km/h 9.3 km/h 98% 0.0 mm
08:52 13.3 °C 13.0 °C 1018.8 hPa NE 7.2 km/h 9.3 km/h 98% 0.0 mm
08:57 13.6 °C 14.0 °C 1018.8 hPa NE 7.2 km/h 7.9 km/h 98% 0.0 mm
09:03 13.8 °C 13.0 °C 1018.8 hPa NE 7.2 km/h 7.2 km/h 97% 0.0 mm
09:08 14.0 °C 14.0 °C 1018.8 hPa NE 7.2 km/h 7.2 km/h 97% 0.0 mm
09:13 14.2 °C 14.0 °C 1018.8 hPa NE 7.2 km/h 7.2 km/h 96% 0.0 mm
09:18 14.5 °C 14.0 °C 1018.8 hPa NE 7.2 km/h 7.2 km/h 96% 0.0 mm
09:23 14.7 °C 14.0 °C 1018.8 hPa NE 7.2 km/h 7.2 km/h 96% 0.0 mm
09:28 14.8 °C 14.0 °C 1018.8 hPa NE 7.2 km/h 7.2 km/h 95% 0.0 mm
09:33 14.7 °C 14.0 °C 1018.8 hPa Calm     94% 0.0 mm
09:38 14.7 °C 14.0 °C 1018.8 hPa Calm     94% 0.0 mm
09:43 14.9 °C 14.0 °C 1018.8 hPa Calm     94% 0.0 mm
09:48 14.9 °C 14.0 °C 1018.8 hPa Calm     94% 0.0 mm
09:53 15.1 °C 14.0 °C 1018.8 hPa Calm     93% 0.0 mm
09:58 15.2 °C 14.0 °C 1018.8 hPa Calm     93% 0.0 mm
10:03 15.6 °C 15.0 °C 1018.8 hPa Calm     93% 0.0 mm
10:08 15.9 °C 15.0 °C 1018.8 hPa Calm     92% 0.0 mm
10:13 16.2 °C 15.0 °C 1018.8 hPa Calm     92% 0.0 mm
10:18 16.4 °C 15.0 °C 1018.8 hPa Calm     91% 0.0 mm
10:23 16.6 °C 15.0 °C 1018.8 hPa Calm     90% 0.0 mm
10:28 16.8 °C 15.0 °C 1018.8 hPa Calm     90% 0.0 mm
10:33 16.9 °C 15.0 °C 1018.2 hPa Calm     89% 0.0 mm
10:38 17.2 °C 15.0 °C 1018.2 hPa Calm     88% 0.0 mm
10:43 17.3 °C 15.0 °C 1018.2 hPa Calm     87% 0.0 mm
10:48 17.4 °C 15.0 °C 1018.2 hPa Calm     87% 0.0 mm
10:53 17.4 °C 15.0 °C 1018.2 hPa Calm     85% 0.0 mm
10:58 17.5 °C 15.0 °C 1018.2 hPa Calm     85% 0.0 mm
11:03 17.6 °C 15.0 °C 1018.8 hPa Calm     85% 0.0 mm
11:08 17.7 °C 15.0 °C 1018.8 hPa Calm     84% 0.0 mm
11:14 17.9 °C 15.0 °C 1018.8 hPa Calm     83% 0.0 mm
11:19 18.0 °C 15.0 °C 1018.8 hPa Calm     81% 0.0 mm
11:24 18.3 °C 15.0 °C 1018.8 hPa Calm     82% 0.0 mm
11:29 18.6 °C 15.0 °C 1018.8 hPa Calm     81% 0.0 mm
11:34 18.7 °C 15.0 °C 1018.2 hPa Calm     79% 0.0 mm
11:39 18.7 °C 15.0 °C 1018.2 hPa Calm     79% 0.0 mm
11:40 18.7 °C 15.0 °C 1018.2 hPa Calm     79% 0.0 mm
11:45 19.1 °C 15.0 °C 1018.2 hPa Calm     78% 0.0 mm
11:50 19.5 °C 16.0 °C 1019.9 hPa Calm     78% 0.0 mm
11:55 19.9 °C 16.0 °C 1019.9 hPa Calm     76% 0.0 mm
12:00 20.1 °C 15.0 °C 1018.8 hPa Calm     74% 0.0 mm
12:05 20.0 °C 15.0 °C 1018.8 hPa Calm     73% 0.0 mm
12:10 20.0 °C 15.0 °C 1018.8 hPa Calm     73% 0.0 mm
12:15 20.0 °C 15.0 °C 1018.8 hPa Calm     73% 0.0 mm
12:20 20.2 °C 15.0 °C 1018.8 hPa Calm     73% 0.0 mm
12:25 20.5 °C 16.0 °C 1018.8 hPa Calm     73% 0.0 mm
12:31 20.5 °C 16.0 °C 1018.8 hPa Calm     72% 0.0 mm
12:36 20.6 °C 15.0 °C 1018.8 hPa Calm     71% 0.0 mm
12:41 20.9 °C 16.0 °C 1018.8 hPa Calm     71% 0.0 mm
12:46 20.9 °C 15.0 °C 1018.8 hPa Calm     70% 0.0 mm
12:51 21.1 °C 15.0 °C 1018.8 hPa Calm     69% 0.0 mm
12:56 21.2 °C 15.0 °C 1018.8 hPa Calm     69% 0.0 mm
13:01 21.4 °C 15.0 °C 1018.8 hPa Calm     69% 0.0 mm
13:06 21.4 °C 15.0 °C 1018.8 hPa Calm     67% 0.0 mm
13:11 21.5 °C 15.0 °C 1018.8 hPa Calm     67% 0.0 mm
13:16 21.5 °C 15.0 °C 1018.8 hPa Calm     66% 0.0 mm
13:21 21.7 °C 15.0 °C 1018.8 hPa Calm     67% 0.0 mm
13:26 21.8 °C 15.0 °C 1018.8 hPa Calm     67% 0.0 mm
13:31 21.8 °C 15.0 °C 1018.8 hPa Calm     66% 0.0 mm
13:36 21.7 °C 15.0 °C 1018.8 hPa Calm     65% 0.0 mm
13:41 21.7 °C 15.0 °C 1018.8 hPa Calm     65% 0.0 mm
13:46 21.6 °C 15.0 °C 1018.8 hPa Calm     64% 0.0 mm
13:51 21.5 °C 14.0 °C 1018.8 hPa Calm     62% 0.0 mm
13:56 21.6 °C 15.0 °C 1018.8 hPa Calm     64% 0.0 mm
14:01 21.5 °C 14.0 °C 1018.8 hPa Calm     62% 0.0 mm
14:07 21.5 °C 14.0 °C 1018.8 hPa Calm     62% 0.0 mm
14:12 21.4 °C 14.0 °C 1018.8 hPa Calm     62% 0.0 mm
14:17 21.4 °C 13.0 °C 1018.8 hPa Calm     61% 0.0 mm
14:22 21.5 °C 14.0 °C 1018.8 hPa Calm     61% 0.0 mm
14:27 21.7 °C 14.0 °C 1018.8 hPa Calm     61% 0.0 mm
14:32 21.6 °C 14.0 °C 1018.8 hPa Calm     60% 0.0 mm
14:37 21.5 °C 13.0 °C 1018.8 hPa Calm     59% 0.0 mm
14:42 21.5 °C 14.0 °C 1018.8 hPa Calm     61% 0.0 mm
14:47 21.6 °C 14.0 °C 1018.8 hPa Calm     60% 0.0 mm
14:52 21.8 °C 13.0 °C 1018.8 hPa Calm     59% 0.0 mm
14:57 21.9 °C 13.0 °C 1018.8 hPa Calm     58% 0.0 mm
15:02 22.1 °C 13.0 °C 1018.8 hPa Calm     57% 0.0 mm
15:07 22.2 °C 13.0 °C 1018.8 hPa Calm     57% 0.0 mm
15:12 22.4 °C 14.0 °C 1018.8 hPa Calm     59% 0.0 mm
15:17 22.6 °C 15.0 °C 1018.8 hPa Calm     60% 0.0 mm
15:22 22.4 °C 14.0 °C 1018.8 hPa Calm     58% 0.0 mm
15:27 22.3 °C 13.0 °C 1018.8 hPa Calm     57% 0.0 mm
15:32 22.6 °C 13.0 °C 1018.8 hPa Calm     56% 0.0 mm
15:37 22.5 °C 14.0 °C 1018.8 hPa Calm     59% 0.0 mm
15:42 22.2 °C 14.0 °C 1018.8 hPa Calm     58% 0.0 mm
15:47 22.4 °C 14.0 °C 1018.8 hPa Calm     59% 0.0 mm
15:52 22.4 °C 14.0 °C 1018.8 hPa Calm     59% 0.0 mm
15:57 22.2 °C 14.0 °C 1018.8 hPa Calm     59% 0.0 mm
16:02 22.2 °C 14.0 °C 1018.2 hPa Calm     59% 0.0 mm
16:07 22.2 °C 14.0 °C 1018.2 hPa Calm     60% 0.0 mm
16:13 22.1 °C 14.0 °C 1018.2 hPa Calm     59% 0.0 mm
16:18 21.9 °C 14.0 °C 1018.8 hPa Calm     60% 0.0 mm
16:23 21.8 °C 14.0 °C 1018.8 hPa Calm     62% 0.0 mm
16:28 21.7 °C 14.0 °C 1018.8 hPa Calm     61% 0.0 mm
16:33 21.8 °C 14.0 °C 1018.8 hPa Calm     61% 0.0 mm
16:38 22.2 °C 14.0 °C 1018.8 hPa ESE 9.3 km/h 9.3 km/h 59% 0.0 mm
16:43 22.6 °C 15.0 °C 1018.8 hPa ESE 9.3 km/h 9.3 km/h 60% 0.0 mm
16:48 22.5 °C 14.0 °C 1018.8 hPa ESE 9.3 km/h 9.3 km/h 58% 0.0 mm
16:53 22.4 °C 14.0 °C 1018.8 hPa ESE 9.3 km/h 9.3 km/h 58% 0.0 mm
16:58 22.1 °C 13.0 °C 1018.8 hPa ESE 9.3 km/h 9.3 km/h 57% 0.0 mm
17:03 22.1 °C 13.0 °C 1018.8 hPa ESE 9.3 km/h 9.3 km/h 58% 0.0 mm
17:08 21.9 °C 14.0 °C 1018.8 hPa ESE 9.3 km/h 9.3 km/h 59% 0.0 mm
17:13 21.8 °C 13.0 °C 1018.8 hPa ESE 9.3 km/h 9.3 km/h 58% 0.0 mm
17:18 22.0 °C 13.0 °C 1018.8 hPa ESE 9.3 km/h 9.3 km/h 57% 0.0 mm
17:23 22.1 °C 14.0 °C 1018.8 hPa ESE 9.3 km/h 9.3 km/h 59% 0.0 mm
17:28 22.0 °C 13.0 °C 1018.8 hPa ESE 9.3 km/h 9.3 km/h 58% 0.0 mm
17:33 21.9 °C 14.0 °C 1018.8 hPa ESE 9.3 km/h 9.3 km/h 59% 0.0 mm
17:38 21.8 °C 13.0 °C 1018.8 hPa ESE 9.3 km/h 9.3 km/h 58% 0.0 mm
17:43 21.6 °C 13.0 °C 1018.8 hPa ESE 9.3 km/h 9.3 km/h 58% 0.0 mm
17:49 21.6 °C 13.0 °C 1018.8 hPa ESE 9.3 km/h 9.3 km/h 59% 0.0 mm
17:54 21.4 °C 13.0 °C 1018.8 hPa ESE 9.3 km/h 9.3 km/h 59% 0.0 mm
17:59 21.4 °C 13.0 °C 1018.8 hPa ESE 9.3 km/h 9.3 km/h 59% 0.0 mm
18:04 21.3 °C 13.0 °C 1018.8 hPa ESE 9.3 km/h 9.3 km/h 59% 0.0 mm
18:09 21.1 °C 13.0 °C 1018.8 hPa ESE 9.3 km/h 9.3 km/h 59% 0.0 mm
18:14 21.0 °C 13.0 °C 1018.8 hPa ESE 9.3 km/h 9.3 km/h 60% 0.0 mm
18:20 21.1 °C 13.0 °C 1018.8 hPa ESE 9.3 km/h 9.3 km/h 59% 0.0 mm
18:25 21.1 °C 13.0 °C 1018.8 hPa ESE 9.3 km/h 9.3 km/h 59% 0.0 mm
18:30 20.9 °C 13.0 °C 1018.8 hPa ESE 9.3 km/h 9.3 km/h 61% 0.0 mm
18:35 20.8 °C 13.0 °C 1018.8 hPa ESE 9.3 km/h 9.3 km/h 62% 0.0 mm
18:40 20.5 °C 13.0 °C 1018.8 hPa ESE 9.3 km/h 9.3 km/h 63% 0.0 mm
18:45 20.1 °C 13.0 °C 1018.8 hPa ESE 9.3 km/h 9.3 km/h 63% 0.0 mm
18:50 19.9 °C 13.0 °C 1018.8 hPa ESE 9.3 km/h 9.3 km/h 65% 0.0 mm
18:55 19.7 °C 13.0 °C 1018.8 hPa ESE 9.3 km/h 9.3 km/h 66% 0.0 mm
19:05 19.3 °C 13.0 °C 1019.9 hPa ESE 9.3 km/h 9.3 km/h 68% 0.0 mm
19:10 19.0 °C 13.0 °C 1019.9 hPa ESE 9.3 km/h 9.3 km/h 69% 0.0 mm
19:11 19.0 °C 13.0 °C 1019.9 hPa ESE 9.3 km/h 9.3 km/h 69% 0.0 mm
19:16 18.9 °C 13.0 °C 1018.8 hPa ESE 9.3 km/h 9.3 km/h 69% 0.0 mm
19:21 18.7 °C 13.0 °C 1018.8 hPa ESE 9.3 km/h 9.3 km/h 70% 0.0 mm
19:26 18.5 °C 13.0 °C 1018.8 hPa ESE 9.3 km/h 9.3 km/h 70% 0.0 mm
19:31 18.3 °C 13.0 °C 1018.8 hPa ESE 9.3 km/h 9.3 km/h 70% 0.0 mm
19:36 18.1 °C 13.0 °C 1018.8 hPa ESE 9.3 km/h 9.3 km/h 72% 0.0 mm
19:41 17.9 °C 13.0 °C 1018.8 hPa ESE 9.3 km/h 9.3 km/h 73% 0.0 mm
19:46 17.7 °C 13.0 °C 1018.8 hPa ESE 9.3 km/h 9.3 km/h 74% 0.0 mm
19:51 17.5 °C 13.0 °C 1018.8 hPa ESE 9.3 km/h 9.3 km/h 73% 0.0 mm
19:56 17.3 °C 13.0 °C 1018.8 hPa ESE 9.3 km/h 9.3 km/h 75% 0.0 mm
20:01 17.2 °C 13.0 °C 1018.2 hPa ESE 9.3 km/h 9.3 km/h 76% 0.0 mm
20:06 17.1 °C 13.0 °C 1018.2 hPa ESE 9.3 km/h 9.3 km/h 76% 0.0 mm
20:11 17.0 °C 13.0 °C 1018.2 hPa ESE 9.3 km/h 9.3 km/h 77% 0.0 mm
20:16 16.9 °C 13.0 °C 1018.2 hPa ESE 9.3 km/h 9.3 km/h 77% 0.0 mm
20:21 16.8 °C 13.0 °C 1018.2 hPa ESE 9.3 km/h 9.3 km/h 78% 0.0 mm
20:26 16.7 °C 13.0 °C 1018.2 hPa ESE 9.3 km/h 9.3 km/h 78% 0.0 mm
20:31 16.5 °C 13.0 °C 1018.2 hPa ESE 9.3 km/h 9.3 km/h 80% 0.0 mm
20:36 16.4 °C 13.0 °C 1018.2 hPa ESE 9.3 km/h 9.3 km/h 79% 0.0 mm
20:41 16.3 °C 13.0 °C 1018.2 hPa ESE 9.3 km/h 9.3 km/h 80% 0.0 mm
20:44 16.3 °C 13.0 °C 1018.2 hPa ESE 9.3 km/h 9.3 km/h 80% 0.0 mm
20:49 16.2 °C 13.0 °C 1018.2 hPa Calm     81% 0.0 mm
20:54 16.1 °C 13.0 °C 1018.2 hPa Calm     81% 0.0 mm
20:59 16.0 °C 13.0 °C 1018.2 hPa Calm     81% 0.0 mm
21:04 15.9 °C 13.0 °C 1018.8 hPa Calm     82% 0.0 mm
21:10 15.9 °C 13.0 °C 1018.8 hPa Calm     82% 0.0 mm
21:15 15.8 °C 13.0 °C 1018.8 hPa Calm     82% 0.0 mm
21:20 15.8 °C 13.0 °C 1018.8 hPa Calm     83% 0.0 mm
21:25 15.7 °C 13.0 °C 1018.8 hPa Calm     83% 0.0 mm
21:30 15.6 °C 13.0 °C 1018.8 hPa Calm     84% 0.0 mm
21:35 15.5 °C 13.0 °C 1018.8 hPa Calm     85% 0.0 mm
21:40 15.4 °C 13.0 °C 1018.8 hPa Calm     85% 0.0 mm
21:45 15.3 °C 13.0 °C 1018.8 hPa Calm     86% 0.0 mm
21:50 15.2 °C 13.0 °C 1018.8 hPa Calm     86% 0.0 mm
21:55 15.2 °C 13.0 °C 1018.8 hPa Calm     87% 0.0 mm
21:57 15.1 °C 13.0 °C 1018.8 hPa Calm     88% 0.0 mm
22:07 15.0 °C 13.0 °C 1018.8 hPa Calm     89% 0.0 mm
22:12 14.9 °C 13.0 °C 1018.8 hPa Calm     90% 0.0 mm
22:17 14.8 °C 13.0 °C 1019.9 hPa Calm     91% 0.0 mm
22:22 14.8 °C 13.0 °C 1019.9 hPa Calm     90% 0.0 mm
22:27 14.7 °C 13.0 °C 1019.9 hPa Calm     91% 0.0 mm
22:32 14.6 °C 13.0 °C 1018.8 hPa Calm     91% 0.0 mm
22:37 14.5 °C 13.0 °C 1018.8 hPa Calm     92% 0.0 mm
22:47 14.4 °C 13.0 °C 1018.8 hPa Calm     92% 0.0 mm
22:52 14.3 °C 13.0 °C 1018.8 hPa Calm     93% 0.0 mm
22:53 14.3 °C 13.0 °C 1018.8 hPa Calm     93% 0.0 mm
22:58 14.2 °C 13.0 °C 1018.8 hPa Calm     93% 0.0 mm
23:03 14.1 °C 13.0 °C 1018.8 hPa Calm     93% 0.0 mm
23:08 14.1 °C 13.0 °C 1018.8 hPa NE 5.5 km/h 5.5 km/h 94% 0.0 mm
23:13 14.0 °C 13.0 °C 1018.8 hPa NE 4.3 km/h 6.1 km/h 94% 0.0 mm
23:18 13.9 °C 13.0 °C 1018.8 hPa Calm   6.1 km/h 94% 0.0 mm
23:28 13.8 °C 13.0 °C 1018.8 hPa Calm   5.0 km/h 94% 0.0 mm
23:31 13.8 °C 13.0 °C 1019.9 hPa North 2.6 km/h 4.0 km/h 94% 0.0 mm
23:36 13.7 °C 13.0 °C 1019.9 hPa Calm   4.7 km/h 94% 0.0 mm
23:41 13.7 °C 13.0 °C 1019.9 hPa North 4.0 km/h 4.7 km/h 94% 0.0 mm
23:47 13.7 °C 13.0 °C 1019.9 hPa Calm   6.4 km/h 94% 0.0 mm
23:52 13.6 °C 13.0 °C 1019.9 hPa Calm   6.4 km/h 95% 0.0 mm
23:57 13.6 °C 13.0 °C 1019.9 hPa North 5.5 km/h 6.9 km/h 95% 0.0 mm
Données Historique de Météo Turbie

Mise a jour : 23/06/2018 17:45:21
Généré par Cumulus 1.9.4 (1099)